Weather reports worldwide

Advertisment
Northampton (Moulton Park), United Kingdom (99115): temperature & dewpoint: 19.11.2017 09:00:00 - 25.11.2017 09:00:00 (GMT)Northampton (Moulton Park), United Kingdom (99115): temperature -100cm: 19.11.2017 09:00:00 - 25.11.2017 09:00:00 (GMT)Northampton (Moulton Park), United Kingdom (99115): precipitation: 19.11.2017 09:00:00 - 25.11.2017 09:00:00 (GMT)
Date & Time tt [°C] td [°C] tt -100cm [°C] rr [mm]
25.11.2017 09:00:00 1,2 0,0 11,0 0,0
25.11.2017 08:00:00 0,0 -0,9 - 0,0
25.11.2017 07:00:00 0,2 -0,4 - 0,0
25.11.2017 06:00:00 0,3 -0,3 - 0,0
25.11.2017 05:00:00 1,0 0,2 - 0,0
25.11.2017 04:00:00 1,1 0,0 - 0,0
25.11.2017 03:00:00 1,6 0,1 - 0,0
25.11.2017 02:00:00 1,5 -0,3 - 0,0
25.11.2017 01:00:00 1,4 -0,7 - 0,0
25.11.2017 00:00:00 1,6 -0,9 - 0,0
24.11.2017 23:00:00 1,6 -1,5 - 0,0
24.11.2017 22:00:00 1,5 -1,0 - 0,0
24.11.2017 21:00:00 1,3 -1,3 - 0,0
24.11.2017 20:00:00 2,3 -0,6 - 0,0
24.11.2017 19:00:00 2,5 -0,6 - 0,0
24.11.2017 18:00:00 3,1 0,1 - 0,0
24.11.2017 17:00:00 3,8 0,6 - 0,0
24.11.2017 16:00:00 - - - 0,0
24.11.2017 15:00:00 6,8 1,1 - 0,0
24.11.2017 14:00:00 6,9 0,8 - 0,0
24.11.2017 13:00:00 6,6 1,6 - 0,0
24.11.2017 12:00:00 - - - 0,0
24.11.2017 11:00:00 4,8 1,7 - 0,0
24.11.2017 10:00:00 4,1 1,5 - 0,0
24.11.2017 09:00:00 3,5 1,7 11,0 0,0
24.11.2017 08:00:00 2,4 1,5 - 0,0
24.11.2017 07:00:00 2,8 1,7 - 0,0
24.11.2017 06:00:00 4,3 3,1 - 0,0
24.11.2017 05:00:00 4,7 3,5 - 0,0
24.11.2017 04:00:00 4,8 3,8 - 0,0
24.11.2017 03:00:00 4,9 3,8 - 0,0
24.11.2017 02:00:00 5,0 3,8 - 0,0
24.11.2017 01:00:00 5,0 3,7 - 0,0
24.11.2017 00:00:00 5,6 4,2 - 0,0
23.11.2017 23:00:00 5,8 4,1 - 0,0
23.11.2017 22:00:00 6,0 3,9 - 0,0
23.11.2017 21:00:00 6,3 3,8 - 0,0
23.11.2017 20:00:00 6,6 3,9 - 0,0
23.11.2017 19:00:00 6,4 3,8 - 0,0
23.11.2017 18:00:00 6,8 2,1 - 0,0
23.11.2017 17:00:00 7,7 3,2 - 0,0
23.11.2017 16:00:00 8,5 4,0 - 0,0
23.11.2017 15:00:00 9,2 4,6 - 0,0
23.11.2017 14:00:00 9,3 4,3 - 0,0
23.11.2017 13:00:00 9,4 3,5 - 0,0
23.11.2017 12:00:00 8,2 3,6 - 0,0
23.11.2017 11:00:00 8,1 2,8 - 0,0
23.11.2017 10:00:00 7,2 2,0 - 0,0
23.11.2017 09:00:00 6,5 2,0 11,0 0,0
23.11.2017 08:00:00 6,8 1,7 - 0,0
23.11.2017 07:00:00 8,7 5,5 - 0,2
23.11.2017 06:00:00 11,5 9,6 - 0,0
23.11.2017 05:00:00 11,6 9,9 - 0,0
23.11.2017 04:00:00 11,4 10,1 - 0,0
23.11.2017 03:00:00 - - - 0,0
23.11.2017 02:00:00 11,4 10,2 - -
23.11.2017 01:00:00 11,3 10,2 - 2,4
23.11.2017 00:00:00 12,6 11,7 - -
22.11.2017 23:00:00 12,7 11,6 - 1,2
22.11.2017 22:00:00 13,6 10,5 - 0,0
22.11.2017 21:00:00 14,2 9,4 - 0,0
22.11.2017 20:00:00 14,0 9,3 - 0,0
22.11.2017 19:00:00 13,4 8,3 - 0,0
22.11.2017 18:00:00 12,9 8,7 - 0,0
22.11.2017 17:00:00 13,4 10,5 - 0,0
22.11.2017 16:00:00 - - - 0,0
22.11.2017 15:00:00 13,6 10,7 - 0,0
22.11.2017 14:00:00 13,6 10,4 - 0,0
22.11.2017 13:00:00 13,6 10,5 - 0,0
22.11.2017 12:00:00 13,9 10,5 - 0,0
22.11.2017 11:00:00 13,6 10,5 - 0,0
22.11.2017 10:00:00 13,7 10,8 - 0,0
22.11.2017 09:00:00 13,0 10,7 11,0 0,0
22.11.2017 08:00:00 12,8 10,4 - 0,0
22.11.2017 07:00:00 12,7 10,2 - 0,0
22.11.2017 06:00:00 12,2 9,5 - 0,0
22.11.2017 05:00:00 12,9 10,3 - 0,0
22.11.2017 04:00:00 12,9 11,5 - 0,0
22.11.2017 03:00:00 12,9 11,5 - 0,0
22.11.2017 02:00:00 12,8 11,4 - 0,0
22.11.2017 01:00:00 12,8 11,3 - 0,0
22.11.2017 00:00:00 12,8 11,3 - 0,0
21.11.2017 23:00:00 12,8 11,2 - 0,0
21.11.2017 22:00:00 12,8 11,2 - 0,0
21.11.2017 21:00:00 12,8 10,9 - 0,0
21.11.2017 20:00:00 12,8 10,7 - 0,0
21.11.2017 19:00:00 12,2 10,5 - 0,0
21.11.2017 18:00:00 11,8 10,4 - 0,2
21.11.2017 17:00:00 11,7 9,9 - 0,0
21.11.2017 16:00:00 11,6 9,2 - 0,0
21.11.2017 15:00:00 11,6 8,9 - -
21.11.2017 14:00:00 11,7 9,0 - 0,0
21.11.2017 13:00:00 11,5 9,0 - 0,0
21.11.2017 12:00:00 11,8 9,2 - 0,0
21.11.2017 11:00:00 11,4 9,8 - -
21.11.2017 10:00:00 11,5 10,2 - 0,0
21.11.2017 09:00:00 11,6 10,3 11,0 0,0
21.11.2017 08:00:00 11,6 10,4 - 0,0
21.11.2017 07:00:00 11,8 10,6 - 0,0
21.11.2017 06:00:00 11,8 10,8 - 0,0
21.11.2017 05:00:00 11,8 10,9 - 0,0
21.11.2017 04:00:00 11,8 10,9 - 0,0
21.11.2017 03:00:00 11,8 11,2 - 0,0
21.11.2017 02:00:00 11,8 11,4 - 0,0
21.11.2017 01:00:00 11,6 11,2 - 0,2
21.11.2017 00:00:00 11,7 11,4 - 0,0
20.11.2017 23:00:00 11,7 11,5 - 0,0
20.11.2017 22:00:00 - - - 0,0
20.11.2017 21:00:00 12,0 11,7 - 0,0
20.11.2017 20:00:00 12,0 11,7 - 0,0
20.11.2017 19:00:00 11,8 11,5 - 0,0
20.11.2017 18:00:00 11,8 11,4 - 0,0
20.11.2017 17:00:00 11,6 11,2 - 0,2
20.11.2017 16:00:00 11,7 11,4 - 0,2
20.11.2017 15:00:00 11,1 10,9 - 1,0
20.11.2017 14:00:00 10,8 10,4 - 0,2
20.11.2017 13:00:00 10,6 10,2 - 0,0
20.11.2017 12:00:00 10,8 9,7 - 0,0
20.11.2017 11:00:00 10,9 9,6 - -
20.11.2017 10:00:00 10,5 9,4 - 0,0
20.11.2017 09:00:00 9,8 8,9 11,2 0,0
20.11.2017 08:00:00 8,9 8,2 - 0,0
20.11.2017 07:00:00 8,5 8,0 - 0,0
20.11.2017 06:00:00 7,9 7,8 - 0,2
20.11.2017 05:00:00 7,4 7,3 - 0,8
20.11.2017 04:00:00 6,6 6,4 - 0,0
20.11.2017 03:00:00 - - - 0,0
20.11.2017 02:00:00 6,1 4,7 - 0,0
20.11.2017 01:00:00 5,7 3,6 - 0,0
20.11.2017 00:00:00 5,6 3,2 - 0,0
19.11.2017 23:00:00 5,3 3,0 - 0,0
19.11.2017 22:00:00 4,8 2,6 - 0,0
19.11.2017 21:00:00 4,5 2,2 - -
19.11.2017 20:00:00 4,5 2,0 - 0,0
19.11.2017 19:00:00 5,3 2,6 - 0,0
19.11.2017 18:00:00 6,1 2,8 - 0,0
19.11.2017 17:00:00 6,3 2,2 - 0,0
19.11.2017 16:00:00 6,8 1,5 - 0,0
19.11.2017 15:00:00 6,9 -0,1 - 0,0
19.11.2017 14:00:00 7,7 0,6 - 0,0
19.11.2017 13:00:00 6,8 0,4 - 0,0
19.11.2017 12:00:00 - - - 0,0
19.11.2017 11:00:00 4,8 0,2 - 0,0
19.11.2017 10:00:00 3,1 -0,3 - 0,0
19.11.2017 09:00:00 1,6 -0,6 11,2 0,0

tt = temperature
td = dewpoint
tt -100cm = temperature -100cm
rr = precipitation

Next stations